Terug naar catalogus

COSMOS 951

ActiefMilitairPO
NORAD 10352·PAYLOAD·🇷🇺 Russia

Gelanceerd Sep 13, 1977 vanaf Plesetsk Cosmodrome

Loading…

Volgende Passages (komende 24 uur)

TLE

VersSource: Space-Track

Epoch: Sep 14, 2026, 07:28 UTC

1 10352U 77087A   26257.31112270  .00000042  00000-0  27983-4 0  9998
2 10352  82.9659 106.6067 0035052 123.2867  51.1572 13.74349404456726

Volg COSMOS 951 in realtime met AllMySat

Download on the App Store